Location: Mt. Bigelow
(32.4165°N, 110.7345°W)
Time: 04:03:50
(UTC-07:00)

Envisat - Visible Passes

Search period start: 20 September 2017 00:00
Search period end: 30 September 2017 00:00
Orbit: 764 x 766 km, 98.2° (Epoch: 19 September)

Date Brightness Start Highest point End Pass type
(mag) Time Alt. Az. Time Alt. Az. Time Alt. Az.
20 Sep 2.9 20:25:55 74° SSW 20:26:20 83° WSW 20:31:25 10° NNW visible
21 Sep 3.4 19:48:56 38° E 19:49:45 40° ENE 19:54:28 10° N visible
21 Sep 5.4 21:29:09 18° W 21:29:09 18° W 21:32:15 10° NW visible
22 Sep 4.4 19:11:57 16° E 19:13:21 18° ENE 19:16:37 10° NNE visible
22 Sep 4.0 20:52:10 43° W 20:52:10 43° W 20:56:47 10° NNW visible
23 Sep 2.8 20:15:11 76° E 20:15:15 77° ENE 20:20:19 10° N visible
24 Sep 3.7 19:38:12 31° E 19:38:43 31° ENE 19:43:09 10° N visible
24 Sep 5.1 21:18:25 22° W 21:18:25 22° W 21:21:41 10° NW visible
25 Sep 4.7 19:01:14 13° E 19:02:23 14° ENE 19:04:48 10° NE visible
25 Sep 3.6 20:41:27 53° WNW 20:41:27 53° WNW 20:45:50 10° NNW visible
26 Sep 3.0 20:04:28 58° ENE 20:04:28 58° ENE 20:09:10 10° N visible
26 Sep 5.9 21:44:41 11° WNW 21:44:41 11° WNW 21:45:24 10° WNW visible
27 Sep 4.0 19:27:29 25° ENE 19:27:43 25° ENE 19:31:46 10° NNE visible
27 Sep 4.9 21:07:43 27° WNW 21:07:43 27° WNW 21:10:57 10° NW visible
28 Sep 4.9 18:50:46 10° ENE 18:51:25 10° ENE 18:52:05 10° ENE visible
28 Sep 3.5 20:30:44 57° NW 20:30:44 57° NW 20:34:49 10° NNW visible
29 Sep 3.4 19:53:45 43° NE 19:53:45 43° NE 19:57:56 10° N visible
29 Sep 5.7 21:33:59 14° WNW 21:33:59 14° WNW 21:35:22 10° NW visible
